Time,TemperatureF,DewpointF,PressureIn,WindDirection,WindDirectionDegrees,WindSpeedMPH,WindSpeedGustMPH,Humidity,HourlyPrecipIn,Conditions,Clouds,dailyrainin,SoftwareType,DateUTC
2013-05-17 00:03:00,66.0,63.0,29.90,SSE,155,0.0,3.0,89,0.10,,,0.35,,2013-05-17 05:03:00,
2013-05-17 00:14:00,66.0,63.0,29.90,SSE,155,0.0,3.0,89,0.10,,,0.35,,2013-05-17 05:14:00,
2013-05-17 00:22:00,66.0,63.0,29.89,SSW,202,0.0,2.0,91,0.07,,,0.35,,2013-05-17 05:22:00,
2013-05-17 00:32:00,65.0,63.0,29.90,SSW,192,0.0,2.0,93,0.01,,,0.35,,2013-05-17 05:32:00,
2013-05-17 00:42:00,65.0,63.0,29.90,SSW,192,0.0,2.0,93,0.01,,,0.35,,2013-05-17 05:42:00,
2013-05-17 00:52:00,65.0,63.0,29.90,SSW,198,0.0,3.0,93,0.00,,,0.35,,2013-05-17 05:52:00,
2013-05-17 01:02:00,65.0,63.0,29.89,SSW,207,0.0,3.0,92,0.00,,,0.35,,2013-05-17 06:02:00,
2013-05-17 01:11:00,65.0,63.0,29.89,SSW,207,0.0,3.0,92,0.00,,,0.35,,2013-05-17 06:11:00,
2013-05-17 01:21:00,65.0,63.0,29.89,SSW,207,0.0,2.0,93,0.00,,,0.35,,2013-05-17 06:21:00,
2013-05-17 01:32:00,65.0,63.0,29.89,SSW,207,0.0,0.0,93,0.00,,,0.35,,2013-05-17 06:32:00,
2013-05-17 01:42:00,65.0,63.0,29.89,SSW,207,0.0,0.0,93,0.00,,,0.35,,2013-05-17 06:42:00,
2013-05-17 01:52:00,64.0,62.0,29.90,SSW,207,0.0,0.0,94,0.00,,,0.35,,2013-05-17 06:52:00,
2013-05-17 02:02:00,64.0,62.0,29.89,SSW,207,0.0,1.0,94,0.00,,,0.35,,2013-05-17 07:02:00,
2013-05-17 02:11:00,64.0,62.0,29.89,SSW,207,0.0,1.0,94,0.00,,,0.35,,2013-05-17 07:11:00,
2013-05-17 02:21:00,63.0,61.0,29.90,SSW,207,0.0,0.0,94,0.00,,,0.35,,2013-05-17 07:21:00,
2013-05-17 02:32:00,63.0,61.0,29.90,SSW,207,0.0,0.0,94,0.00,,,0.35,,2013-05-17 07:32:00,
2013-05-17 02:43:00,63.0,61.0,29.90,SSW,207,0.0,0.0,94,0.00,,,0.35,,2013-05-17 07:43:00,
2013-05-17 02:53:00,62.0,60.0,29.90,SSW,207,0.0,0.0,94,0.00,,,0.35,,2013-05-17 07:53:00,
2013-05-17 03:02:00,62.0,60.0,29.90,SSW,207,0.0,0.0,94,0.00,,,0.35,,2013-05-17 08:02:00,
2013-05-17 03:12:00,62.0,60.0,29.90,SSW,207,0.0,0.0,94,0.00,,,0.35,,2013-05-17 08:12:00,
2013-05-17 03:23:00,62.0,61.0,29.91,SSW,207,0.0,0.0,95,0.00,,,0.35,,2013-05-17 08:23:00,
2013-05-17 03:33:00,61.0,60.0,29.90,SSW,207,0.0,0.0,95,0.00,,,0.35,,2013-05-17 08:33:00,
2013-05-17 03:42:00,61.0,60.0,29.90,SSW,207,0.0,0.0,95,0.00,,,0.35,,2013-05-17 08:42:00,
2013-05-17 03:51:00,61.0,59.0,29.90,SSW,207,0.0,0.0,94,0.00,,,0.35,,2013-05-17 08:51:00,
2013-05-17 04:02:00,60.0,59.0,29.91,SSW,207,0.0,0.0,95,0.00,,,0.35,,2013-05-17 09:02:00,
2013-05-17 04:12:00,60.0,59.0,29.91,SSW,207,0.0,0.0,95,0.00,,,0.35,,2013-05-17 09:12:00,
2013-05-17 04:22:00,60.0,59.0,29.91,SSW,207,0.0,0.0,95,0.00,,,0.35,,2013-05-17 09:22:00,
2013-05-17 04:33:00,59.0,58.0,29.91,SSW,207,0.0,0.0,95,0.00,,,0.35,,2013-05-17 09:33:00,
2013-05-17 04:42:00,59.0,58.0,29.91,SSW,207,0.0,0.0,95,0.00,,,0.35,,2013-05-17 09:42:00,
2013-05-17 04:53:00,59.0,58.0,29.91,SSW,207,0.0,0.0,95,0.00,,,0.35,,2013-05-17 09:53:00,
2013-05-17 05:03:00,59.0,58.0,29.91,SSW,207,0.0,0.0,96,0.00,,,0.35,,2013-05-17 10:03:00,
2013-05-17 05:12:00,59.0,58.0,29.91,SSW,207,0.0,0.0,96,0.00,,,0.35,,2013-05-17 10:12:00,
2013-05-17 05:23:00,59.0,58.0,29.91,SSW,207,0.0,0.0,96,0.00,,,0.35,,2013-05-17 10:23:00,
2013-05-17 05:33:00,59.0,58.0,29.92,SSW,207,0.0,0.0,96,0.00,,,0.35,,2013-05-17 10:33:00,
2013-05-17 05:42:00,59.0,58.0,29.92,SSW,207,0.0,0.0,96,0.00,,,0.35,,2013-05-17 10:42:00,
2013-05-17 05:53:00,59.0,58.0,29.92,SSW,207,0.0,0.0,96,0.00,,,0.35,,2013-05-17 10:53:00,
2013-05-17 06:02:00,60.0,59.0,29.92,SSW,207,0.0,0.0,97,0.00,,,0.35,,2013-05-17 11:02:00,
2013-05-17 06:12:00,60.0,59.0,29.92,SSW,207,0.0,0.0,97,0.00,,,0.35,,2013-05-17 11:12:00,
2013-05-17 06:22:00,60.0,59.0,29.93,SSW,207,0.0,0.0,97,0.00,,,0.35,,2013-05-17 11:22:00,
2013-05-17 06:34:00,60.0,59.0,29.93,SSW,207,0.0,0.0,97,0.00,,,0.35,,2013-05-17 11:34:00,
2013-05-17 06:42:00,60.0,59.0,29.93,SSW,207,0.0,0.0,97,0.00,,,0.35,,2013-05-17 11:42:00,
2013-05-17 06:53:00,60.0,59.0,29.94,SSW,207,0.0,0.0,97,0.00,,,0.35,,2013-05-17 11:53:00,
2013-05-17 07:03:00,60.0,59.0,29.94,SSW,207,0.0,0.0,97,0.00,,,0.35,,2013-05-17 12:03:00,
2013-05-17 07:12:00,60.0,59.0,29.94,SSW,207,0.0,0.0,97,0.00,,,0.35,,2013-05-17 12:12:00,
2013-05-17 07:23:00,60.0,59.0,29.95,SSW,207,0.0,0.0,97,0.00,,,0.35,,2013-05-17 12:23:00,
2013-05-17 07:32:00,61.0,60.0,29.95,SSW,207,0.0,0.0,97,0.00,,,0.35,,2013-05-17 12:32:00,
2013-05-17 07:43:00,61.0,60.0,29.95,SSW,207,0.0,0.0,97,0.00,,,0.35,,2013-05-17 12:43:00,
2013-05-17 07:53:00,62.0,61.0,29.95,SSW,207,0.0,0.0,97,0.00,,,0.35,,2013-05-17 12:53:00,
2013-05-17 08:03:00,62.0,61.0,29.96,SSW,207,0.0,0.0,97,0.00,,,0.35,,2013-05-17 13:03:00,
2013-05-17 08:12:00,62.0,61.0,29.96,SSW,207,0.0,0.0,97,0.00,,,0.35,,2013-05-17 13:12:00,
2013-05-17 08:23:00,62.0,61.0,29.96,SSW,207,0.0,0.0,96,0.00,,,0.35,,2013-05-17 13:23:00,
2013-05-17 08:33:00,63.0,62.0,29.96,SSW,207,0.0,0.0,95,0.00,,,0.35,,2013-05-17 13:33:00,
2013-05-17 08:42:00,63.0,62.0,29.96,SSW,207,0.0,0.0,95,0.00,,,0.35,,2013-05-17 13:42:00,
2013-05-17 08:52:00,63.0,61.0,29.96,SSW,207,0.0,0.0,94,0.00,,,0.35,,2013-05-17 13:52:00,
2013-05-17 09:02:00,65.0,63.0,29.96,SSW,207,0.0,0.0,92,0.00,,,0.35,,2013-05-17 14:02:00,
2013-05-17 09:13:00,65.0,63.0,29.96,SSW,207,0.0,0.0,92,0.00,,,0.35,,2013-05-17 14:13:00,
2013-05-17 09:22:00,67.0,62.0,29.96,SSW,194,0.0,0.0,85,0.00,,,0.35,,2013-05-17 14:22:00,
2013-05-17 09:34:00,69.0,63.0,29.96,SSE,152,1.0,4.0,81,0.00,,,0.35,,2013-05-17 14:34:00,
2013-05-17 09:43:00,69.0,63.0,29.96,SSE,152,1.0,4.0,81,0.00,,,0.35,,2013-05-17 14:43:00,
2013-05-17 09:53:00,71.0,64.0,29.95,South,173,0.0,4.0,78,0.00,,,0.35,,2013-05-17 14:53:00,
2013-05-17 10:03:00,72.0,62.0,29.96,SSE,162,0.0,2.0,70,0.00,,,0.35,,2013-05-17 15:03:00,
2013-05-17 10:14:00,72.0,62.0,29.96,SSE,162,0.0,2.0,70,0.00,,,0.35,,2013-05-17 15:14:00,
2013-05-17 10:25:00,73.0,61.0,29.95,SSE,157,0.0,2.0,67,0.00,,,0.35,,2013-05-17 15:25:00,
2013-05-17 10:37:00,74.0,61.0,29.95,ENE,67,1.0,5.0,65,0.00,,,0.35,,2013-05-17 15:37:00,
2013-05-17 10:47:00,74.0,61.0,29.95,ENE,67,1.0,5.0,65,0.00,,,0.35,,2013-05-17 15:47:00,
2013-05-17 10:56:00,75.0,63.0,29.96,ENE,69,0.0,5.0,66,0.00,,,0.35,,2013-05-17 15:56:00,
2013-05-17 11:07:00,75.0,62.0,29.96,ESE,105,1.0,4.0,63,0.00,,,0.35,,2013-05-17 16:07:00,
2013-05-17 11:13:00,75.0,62.0,29.96,ESE,105,1.0,4.0,63,0.00,,,0.35,,2013-05-17 16:13:00,
2013-05-17 11:26:00,75.0,63.0,29.95,NE,39,0.0,5.0,66,0.00,,,0.35,,2013-05-17 16:26:00,
2013-05-17 11:37:00,76.0,64.0,29.95,NE,40,4.0,8.0,67,0.00,,,0.35,,2013-05-17 16:37:00,
2013-05-17 11:49:00,76.0,64.0,29.95,NE,40,4.0,8.0,67,0.00,,,0.35,,2013-05-17 16:49:00,
2013-05-17 11:56:00,75.0,63.0,29.95,ENE,72,3.0,8.0,66,0.00,,,0.35,,2013-05-17 16:56:00,
2013-05-17 12:08:00,76.0,63.0,29.94,ESE,118,1.0,12.0,65,0.00,,,0.35,,2013-05-17 17:08:00,
2013-05-17 12:19:00,76.0,63.0,29.94,ESE,118,1.0,12.0,65,0.00,,,0.35,,2013-05-17 17:19:00,
2013-05-17 12:30:00,76.0,63.0,29.94,ENE,63,3.0,7.0,65,0.00,,,0.35,,2013-05-17 17:30:00,
2013-05-17 12:40:00,76.0,-99.9,29.94,ENE,74,1.0,6.0,64,0.00,,,0.35,,2013-05-17 17:40:00,
2013-05-17 12:49:00,76.0,63.0,29.94,ENE,74,1.0,6.0,64,0.00,,,0.35,,2013-05-17 17:49:00,
2013-05-17 13:00:00,76.0,63.0,29.93,ENE,63,1.0,4.0,65,0.00,,,0.35,,2013-05-17 18:00:00,
2013-05-17 13:09:00,77.0,63.0,29.93,East,98,1.0,4.0,63,0.00,,,0.35,,2013-05-17 18:09:00,
2013-05-17 13:20:00,77.0,63.0,29.93,East,98,1.0,4.0,63,0.00,,,0.35,,2013-05-17 18:20:00,
2013-05-17 13:30:00,78.0,63.0,29.92,East,80,0.0,3.0,61,0.00,,,0.35,,2013-05-17 18:30:00,
2013-05-17 13:40:00,79.0,-99.9,29.92,SSW,198,4.0,9.0,56,0.00,,,0.35,,2013-05-17 18:40:00,
2013-05-17 13:50:00,-999.0,-99.9,29.92,SSW,198,4.0,9.0,56,0.00,,,0.35,,2013-05-17 18:50:00,
2013-05-17 14:00:00,79.0,61.0,29.92,South,171,3.0,7.0,55,0.00,,,0.35,,2013-05-17 19:00:00,
2013-05-17 14:10:00,78.0,61.0,29.92,SSE,161,3.0,9.0,56,0.00,,,0.35,,2013-05-17 19:10:00,
2013-05-17 14:20:00,78.0,61.0,29.92,SSE,161,3.0,9.0,56,0.00,,,0.35,,2013-05-17 19:20:00,
2013-05-17 14:30:00,78.0,63.0,29.92,SSW,194,4.0,10.0,61,0.00,,,0.35,,2013-05-17 19:30:00,
2013-05-17 14:40:00,77.0,62.0,29.92,South,181,4.0,10.0,60,0.00,,,0.35,,2013-05-17 19:40:00,
2013-05-17 14:50:00,77.0,62.0,29.92,South,181,4.0,10.0,60,0.00,,,0.35,,2013-05-17 19:50:00,
2013-05-17 15:00:00,77.0,-99.9,29.92,WSW,254,3.0,11.0,61,0.00,,,0.35,,2013-05-17 20:00:00,
2013-05-17 15:09:00,77.0,63.0,29.92,South,171,0.0,7.0,62,0.00,,,0.35,,2013-05-17 20:09:00,
2013-05-17 15:20:00,77.0,63.0,29.92,South,171,0.0,7.0,62,0.00,,,0.35,,2013-05-17 20:20:00,
2013-05-17 15:30:00,77.0,61.0,29.92,South,173,3.0,9.0,58,0.00,,,0.35,,2013-05-17 20:30:00,
2013-05-17 15:40:00,78.0,63.0,29.91,SSE,166,2.0,8.0,60,0.00,,,0.35,,2013-05-17 20:40:00,
2013-05-17 15:50:00,78.0,63.0,29.91,SSE,166,2.0,8.0,60,0.00,,,0.35,,2013-05-17 20:50:00,
2013-05-17 15:58:00,78.0,64.0,29.91,South,175,2.0,8.0,62,0.00,,,0.35,,2013-05-17 20:58:00,
2013-05-17 16:07:00,75.0,62.0,29.91,SSE,151,4.0,12.0,65,0.00,,,0.35,,2013-05-17 21:07:00,
2013-05-17 16:17:00,75.0,62.0,29.91,SSE,151,4.0,12.0,65,0.00,,,0.35,,2013-05-17 21:17:00,
2013-05-17 16:26:00,73.0,62.0,29.91,SE,144,3.0,10.0,68,0.00,,,0.35,,2013-05-17 21:26:00,
2013-05-17 16:39:00,72.0,63.0,29.91,South,173,2.0,11.0,73,0.00,,,0.35,,2013-05-17 21:39:00,
2013-05-17 16:49:00,72.0,63.0,29.91,South,173,2.0,11.0,73,0.00,,,0.35,,2013-05-17 21:49:00,
2013-05-17 16:57:00,71.0,63.0,29.91,SSE,155,1.0,7.0,76,0.00,,,0.35,,2013-05-17 21:57:00,
2013-05-17 17:07:00,71.0,64.0,29.91,ESE,110,1.0,9.0,78,0.00,,,0.35,,2013-05-17 22:07:00,
2013-05-17 17:17:00,71.0,64.0,29.91,ESE,110,1.0,9.0,78,0.00,,,0.35,,2013-05-17 22:17:00,
2013-05-17 17:28:00,72.0,64.0,29.91,SSE,160,1.0,4.0,76,0.00,,,0.35,,2013-05-17 22:28:00,
2013-05-17 17:38:00,72.0,64.0,29.91,East,94,1.0,5.0,76,0.00,,,0.35,,2013-05-17 22:38:00,
2013-05-17 17:47:00,72.0,64.0,29.91,East,94,1.0,5.0,76,0.00,,,0.35,,2013-05-17 22:47:00,
2013-05-17 17:54:00,72.0,64.0,29.91,SE,124,0.0,8.0,76,0.00,,,0.35,,2013-05-17 22:54:00,
2013-05-17 18:04:00,72.0,64.0,29.91,East,96,2.0,8.0,75,0.00,,,0.35,,2013-05-17 23:04:00,
2013-05-17 18:13:00,72.0,64.0,29.91,East,96,2.0,8.0,75,0.00,,,0.35,,2013-05-17 23:13:00,
2013-05-17 18:23:00,71.0,63.0,29.91,NNW,337,2.0,9.0,77,0.00,,,0.35,,2013-05-17 23:23:00,
2013-05-17 18:37:00,70.0,63.0,29.92,SE,134,3.0,11.0,79,0.00,,,0.35,,2013-05-17 23:37:00,
2013-05-17 18:47:00,70.0,63.0,29.92,SE,134,3.0,11.0,79,0.00,,,0.35,,2013-05-17 23:47:00,
2013-05-17 18:54:00,69.0,64.0,29.92,SE,129,3.0,8.0,83,0.00,,,0.35,,2013-05-17 23:54:00,
2013-05-17 19:02:00,69.0,64.0,29.92,SSE,148,3.0,13.0,85,0.00,,,0.35,,2013-05-18 00:02:00,
2013-05-17 19:14:00,69.0,64.0,29.92,SSE,148,3.0,13.0,85,0.00,,,0.35,,2013-05-18 00:14:00,
2013-05-17 19:22:00,68.0,63.0,29.93,East,85,2.0,8.0,84,0.00,,,0.35,,2013-05-18 00:22:00,
2013-05-17 19:33:00,68.0,63.0,29.93,SE,146,0.0,10.0,84,0.00,,,0.35,,2013-05-18 00:33:00,
2013-05-17 19:44:00,68.0,63.0,29.93,SE,146,0.0,10.0,84,0.00,,,0.35,,2013-05-18 00:44:00,
2013-05-17 19:54:00,68.0,63.0,29.93,ESE,123,1.0,7.0,85,0.00,,,0.35,,2013-05-18 00:54:00,
2013-05-17 20:03:00,68.0,63.0,29.93,SE,140,4.0,8.0,85,0.00,,,0.35,,2013-05-18 01:03:00,
2013-05-17 20:13:00,68.0,63.0,29.93,SE,140,4.0,8.0,85,0.00,,,0.35,,2013-05-18 01:13:00,
2013-05-17 20:24:00,68.0,63.0,29.93,SE,141,1.0,10.0,85,0.00,,,0.35,,2013-05-18 01:24:00,
2013-05-17 20:32:00,68.0,64.0,29.94,SE,138,2.0,8.0,86,0.00,,,0.35,,2013-05-18 01:32:00,
2013-05-17 20:43:00,68.0,64.0,29.94,SE,138,2.0,8.0,86,0.00,,,0.35,,2013-05-18 01:43:00,
2013-05-17 20:52:00,68.0,63.0,29.94,SE,135,5.0,11.0,83,0.00,,,0.35,,2013-05-18 01:52:00,
2013-05-17 21:02:00,67.0,62.0,29.95,SE,134,3.0,10.0,83,0.00,,,0.35,,2013-05-18 02:02:00,
2013-05-17 21:12:00,67.0,62.0,29.95,SE,134,3.0,10.0,83,0.00,,,0.35,,2013-05-18 02:12:00,
2013-05-17 21:22:00,67.0,62.0,29.95,SE,134,2.0,8.0,84,0.00,,,0.35,,2013-05-18 02:22:00,
2013-05-17 21:31:00,67.0,62.0,29.96,SSW,194,1.0,6.0,85,0.00,,,0.35,,2013-05-18 02:31:00,
2013-05-17 21:42:00,67.0,62.0,29.96,SSW,194,1.0,6.0,85,0.00,,,0.35,,2013-05-18 02:42:00,
2013-05-17 21:53:00,66.0,61.0,29.96,SE,126,0.0,6.0,85,0.00,,,0.35,,2013-05-18 02:53:00,
2013-05-17 22:02:00,66.0,61.0,29.96,SSE,165,2.0,7.0,85,0.00,,,0.35,,2013-05-18 03:02:00,
2013-05-17 22:12:00,66.0,61.0,29.96,SSE,165,2.0,7.0,85,0.00,,,0.35,,2013-05-18 03:12:00,
2013-05-17 22:22:00,66.0,61.0,29.97,SSW,192,2.0,6.0,85,0.00,,,0.35,,2013-05-18 03:22:00,
2013-05-17 22:33:00,66.0,62.0,29.97,SSE,150,4.0,9.0,86,0.00,,,0.13,,2013-05-18 03:33:00,
2013-05-17 22:43:00,66.0,62.0,29.97,SSE,150,4.0,9.0,86,0.00,,,0.13,,2013-05-18 03:43:00,
2013-05-17 22:53:00,65.0,61.0,29.97,South,170,1.0,5.0,88,0.00,,,0.13,,2013-05-18 03:53:00,
2013-05-17 23:03:00,65.0,62.0,29.97,ESE,122,0.0,4.0,89,0.00,,,0.13,,2013-05-18 04:03:00,
2013-05-17 23:12:00,65.0,62.0,29.97,ESE,122,0.0,4.0,89,0.00,,,0.13,,2013-05-18 04:12:00,
2013-05-17 23:23:00,65.0,62.0,29.97,SE,134,0.0,2.0,90,0.00,,,0.13,,2013-05-18 04:23:00,
2013-05-17 23:33:00,65.0,62.0,29.97,SE,137,0.0,2.0,90,0.00,,,0.01,,2013-05-18 04:33:00,
2013-05-17 23:42:00,65.0,62.0,29.97,SE,137,0.0,2.0,90,0.00,,,0.01,,2013-05-18 04:42:00,
2013-05-17 23:52:00,64.0,61.0,29.97,SE,138,1.0,4.0,91,0.00,,,0.01,,2013-05-18 04:52:00,